Tracking 35275 objects as of 8-Sep-2026
HD Live streaming from Space Station
objects crossing your sky now

FENGYUN 1C DEB


FENGYUN 1C DEB is no longer on orbit


NORAD ID: 30595
Int'l Code: 1999-025AMA
Launch date: May 10, 1999
Source: People's Republic of China (PRC)
Launch site: Taiyaun Space Center, China (TSC)
Decay date: 2012-04-21

Note: This is SATELLITE DEBRIS
Your satellite tracking list
Your tracking list is empty




NASA's NSSDC Master Catalog

Two Line Element Set (TLE):
1 30595U 99025AMA 12112.09892710  .03949614  22201-1  11600-1 0  9993
2 30595 098.8455 347.1948 0013155 308.1243 082.0052 15.96587499283299
Source of the keplerian elements: AFSPC